Location: Calvatone
(45.1167°N, 10.4333°E)
Time: 12:12:17
(UTC+00:00)

Cosmos 2266 Rocket - Pass Details

Date: 28 January 2023
Orbit: 933 x 1008 km, 82.9° (Epoch: 29 March)

Event Time Altitude Azimuth Distance (km) Brightness Sun altitude
Rises 16:58:21 0° 355° (N) 3,731 6.9 -7.2°
Reaches altitude 10° 17:01:01 10° 1° (N) 2,768 6.2 -7.6°
Maximum altitude 17:07:09 49° 76° (ENE) 1,244 4.2 -8.6°
Drops below altitude 10° 17:13:09 10° 151° (SSE) 2,702 6.2 -9.7°
Sets 17:15:42 0° 156° (SSE) 3,633 6.9 -10.1°
